This demonstration page uses our WeatherBlox Daily Observations layout. Learn more.

Left ArrowRight Arrow

Hourly Observations for July 25, 2017

Temp ( °F °C ) Dew Point ( °F °C ) Humidity (%) Winds ( mph kmh ) Pressure ( in mb ) Visibility ( mi km ) Precip ( " mm )
12:53 am 00:53 Clear 79 26.1 66 18.9 65 65 SE 8 13 29.88 1012 10 16 0.00 0.00
1:53 am 01:53 Clear 78 25.6 66 18.9 67 67 SE 12 19 29.88 1012 10 16 0.00 0.00
2:53 am 02:53 Clear 76 24.4 66 18.9 72 72 SE 10 17 29.87 1012 10 16 0.00 0.00
3:53 am 03:53 Clear 75 23.9 66 18.9 74 74 SE 9 15 29.88 1012 10 16 0.00 0.00
4:53 am 04:53 Clear 74 23.3 66 18.9 76 76 SE 12 19 29.88 1012 10 16 0.00 0.00
5:53 am 05:53 Clear 74 23.3 66 18.9 76 76 SE 9 15 29.91 1013 10 16 0.00 0.00
6:53 am 06:53 Clear 73 22.8 66 18.9 79 79 ESE 10 17 29.91 1013 10 16 0.00 0.00
7:53 am 07:53 Sunny 73 22.8 65 18.3 76 76 ESE 7 11 29.92 1013 10 16 0.00 0.00
8:02 am 08:02 Mostly Sunny 74 23.3 65 18.3 74 74 SE 8 13 29.91 1013 10 16 0.00 0.00
8:53 am 08:53 Sunny 76 24.4 64 17.8 67 67 SE 12 19 29.93 1014 10 16 0.00 0.00
9:53 am 09:53 Sunny 82 27.8 64 17.8 55 55 SE 10 17 29.94 1014 10 16 0.00 0.00
10:53 am 10:53 Sunny 86 30 60 15.6 42 42 SSE 10 17 29.94 1014 10 16 0.00 0.00
11:53 am 11:53 Sunny 90 32.2 61 16.1 38 38 SE 9 15 29.93 1013 10 16 0.00 0.00
12:53 pm 12:53 Sunny 92 33.3 60 15.6 34 34 SSE 6 9 29.92 1013 10 16 0.00 0.00
1:53 pm 13:53 Sunny 96 35.6 59 15 29 29 SE 14 22 29.90 1013 10 16 0.00 0.00
2:53 pm 14:53 Sunny 98 36.7 57 13.9 25 25 SE 18 30 29.88 1012 10 16 0.00 0.00
3:53 pm 15:53 Sunny 98 36.7 56 13.3 24 24 SSE 6 9 29.85 1011 10 16 0.00 0.00
4:53 pm 16:53 Sunny 98 36.7 55 12.8 24 24 ESE 17 28 29.85 1011 10 16 0.00 0.00
5:53 pm 17:53 Sunny 98 36.7 55 12.8 24 24 ESE 15 24 29.84 1010 10 16 0.00 0.00
6:53 pm 18:53 Sunny 97 36.1 55 12.8 24 24 SE 15 24 29.84 1011 10 16 0.00 0.00
7:53 pm 19:53 Sunny 94 34.4 55 12.8 27 27 SE 16 26 29.85 1011 10 16 0.00 0.00
8:53 pm 20:53 Sunny 91 32.8 56 13.3 31 31 SE 15 24 29.86 1011 10 16 0.00 0.00
9:53 pm 21:53 Clear 88 31.1 57 13.9 35 35 SE 12 19 29.88 1012 10 16 0.00 0.00
10:53 pm 22:53 Clear 87 30.6 58 14.4 37 37 SSE 14 22 29.90 1013 10 16 0.00 0.00
11:53 pm 23:53 Clear 85 29.4 59 15 42 42 SSE 13 20 29.91 1013 10 16 0.00 0.00

Powered by AerisWeather